MDT3 ENGM-ENNO

Flight info

Callsign MDT3
Flight time 0h 23m
Altitude 22000
Route ATLAP DCT MATZE
Aircraft CL60/M-SBDE1E2E3FGHIJ1J4J5J7M3RWXYZ/LB1V1D1

Departure

Time 2026-05-05 17:56
Airport Oslo-Gardermoen International Airport (ENGM)

Arrival

Time 2026-05-05 18:19
Airport Notodden Airport (ENNO)
Time Latitude Longitude Altitude Speed Heading
2026-05-05 17:39 60.20054 11.07664 684 ft 0 kts 264°
2026-05-05 17:51 60.20054 11.07663 684 ft 0 kts 264°
2026-05-05 17:51 60.20054 11.07653 684 ft 1 kts 263°
2026-05-05 17:51 60.20047 11.07614 684 ft 4 kts 220°
2026-05-05 17:51 60.20000 11.07657 683 ft 11 kts 123°
2026-05-05 17:52 60.19988 11.07763 685 ft 7 kts 116°
2026-05-05 17:52 60.19922 11.07794 684 ft 13 kts 175°
2026-05-05 17:52 60.19825 11.07817 683 ft 5 kts 158°
2026-05-05 17:52 60.19803 11.07858 683 ft 2 kts 110°
2026-05-05 17:53 60.19801 11.07870 683 ft 0 kts 106°
2026-05-05 17:55 60.19801 11.07873 683 ft 2 kts 105°
2026-05-05 17:55 60.19781 11.08015 682 ft 11 kts 107°
2026-05-05 17:55 60.19794 11.08121 683 ft 0 kts 17°
2026-05-05 17:55 60.19795 11.08122 683 ft 0 kts 17°
2026-05-05 17:56 60.19882 11.08171 684 ft 53 kts 15°
2026-05-05 17:56 60.20554 11.08561 684 ft 138 kts 15°
2026-05-05 17:56 60.21615 11.09194 986 ft 173 kts 15°
2026-05-05 17:56 60.22803 11.09915 1725 ft 193 kts 16°
2026-05-05 17:57 60.24169 11.10778 2427 ft 215 kts 10°
2026-05-05 17:57 60.25593 11.11327 3786 ft 214 kts 358°
2026-05-05 17:57 60.26994 11.11094 5303 ft 212 kts 346°
2026-05-05 17:57 60.28421 11.10569 6407 ft 211 kts 346°
2026-05-05 17:58 60.29850 11.10052 6905 ft 210 kts 343°
2026-05-05 17:58 60.31090 11.08596 6786 ft 203 kts 304°
2026-05-05 17:58 60.31404 11.06025 6823 ft 188 kts 256°
2026-05-05 17:58 60.30777 11.03748 6987 ft 195 kts 236°
2026-05-05 17:59 60.30106 11.01007 6950 ft 240 kts 255°
2026-05-05 17:59 60.29395 10.97823 7874 ft 263 kts 231°
2026-05-05 17:59 60.27996 10.95427 9174 ft 278 kts 218°
2026-05-05 17:59 60.26418 10.93116 9716 ft 284 kts 218°
2026-05-05 18:00 60.24807 10.90756 9850 ft 283 kts 218°
2026-05-05 18:00 60.23222 10.88423 9852 ft 279 kts 219°
2026-05-05 18:00 60.21663 10.86114 9859 ft 277 kts 219°
2026-05-05 18:00 60.20113 10.83798 9851 ft 277 kts 219°
2026-05-05 18:01 60.18581 10.81480 9850 ft 277 kts 219°
2026-05-05 18:01 60.17065 10.79152 9852 ft 276 kts 220°
2026-05-05 18:01 60.15560 10.76761 9839 ft 276 kts 221°
2026-05-05 18:01 60.14069 10.74304 9852 ft 277 kts 222°
2026-05-05 18:02 60.12564 10.71822 9841 ft 276 kts 221°
2026-05-05 18:02 60.11082 10.69380 9847 ft 277 kts 222°
2026-05-05 18:02 60.09608 10.66950 9852 ft 277 kts 222°
2026-05-05 18:02 60.08119 10.64499 9858 ft 276 kts 221°
2026-05-05 18:03 60.06637 10.62058 9853 ft 275 kts 222°
2026-05-05 18:03 60.05167 10.59640 9859 ft 275 kts 222°
2026-05-05 18:03 60.03679 10.57192 9860 ft 275 kts 222°
2026-05-05 18:03 60.02221 10.54797 9859 ft 275 kts 222°
2026-05-05 18:04 60.00731 10.52349 9856 ft 275 kts 221°
2026-05-05 18:04 59.99252 10.49922 9858 ft 275 kts 221°
2026-05-05 18:04 59.97764 10.47484 9860 ft 275 kts 222°
2026-05-05 18:04 59.96299 10.45085 9864 ft 275 kts 221°
2026-05-05 18:05 59.94798 10.42629 9869 ft 275 kts 222°
2026-05-05 18:05 59.93324 10.40220 9874 ft 275 kts 222°
2026-05-05 18:05 59.91860 10.37830 9873 ft 275 kts 221°
2026-05-05 18:05 59.90379 10.35414 9877 ft 275 kts 222°
2026-05-05 18:06 59.88886 10.32982 9878 ft 276 kts 221°
2026-05-05 18:06 59.87890 10.31360 9880 ft 276 kts 221°
2026-05-05 18:06 59.85919 10.28154 9873 ft 276 kts 221°
2026-05-05 18:06 59.84425 10.25729 9869 ft 277 kts 221°
2026-05-05 18:07 59.82935 10.23310 9859 ft 278 kts 221°
2026-05-05 18:07 59.81425 10.20864 9858 ft 278 kts 221°
2026-05-05 18:07 59.79929 10.18442 9860 ft 279 kts 221°
2026-05-05 18:07 59.78416 10.15997 9860 ft 279 kts 221°
2026-05-05 18:08 59.76906 10.13557 9861 ft 279 kts 221°
2026-05-05 18:08 59.75407 10.11141 9859 ft 279 kts 221°
2026-05-05 18:08 59.73884 10.08687 9860 ft 279 kts 221°
2026-05-05 18:08 59.72367 10.06247 9859 ft 279 kts 221°
2026-05-05 18:09 59.70869 10.03838 9858 ft 278 kts 221°
2026-05-05 18:09 59.69360 10.01416 9856 ft 277 kts 221°
2026-05-05 18:09 59.67857 9.99007 9857 ft 278 kts 221°
2026-05-05 18:09 59.66352 9.96597 9857 ft 278 kts 221°
2026-05-05 18:10 59.64827 9.94159 9857 ft 278 kts 221°
2026-05-05 18:10 59.63331 9.91768 9858 ft 278 kts 221°
2026-05-05 18:10 59.61812 9.89344 9678 ft 282 kts 221°
2026-05-05 18:10 59.60268 9.86882 9305 ft 281 kts 221°
2026-05-05 18:11 59.58769 9.84497 8958 ft 277 kts 221°
2026-05-05 18:11 59.57254 9.82089 8581 ft 275 kts 221°
2026-05-05 18:11 59.55778 9.79745 8216 ft 274 kts 221°
2026-05-05 18:11 59.54300 9.77402 7846 ft 273 kts 221°
2026-05-05 18:12 59.52815 9.75047 7481 ft 272 kts 221°
2026-05-05 18:12 59.51333 9.72702 7112 ft 272 kts 221°
2026-05-05 18:12 59.49868 9.70386 6757 ft 269 kts 221°
2026-05-05 18:12 59.48412 9.68086 6402 ft 265 kts 221°
2026-05-05 18:13 59.46994 9.65852 6061 ft 261 kts 221°
2026-05-05 18:13 59.45592 9.63643 5722 ft 256 kts 221°
2026-05-05 18:13 59.44312 9.61230 5380 ft 249 kts 233°
2026-05-05 18:13 59.43247 9.58598 5057 ft 245 kts 234°
2026-05-05 18:14 59.42184 9.55980 4740 ft 240 kts 234°
2026-05-05 18:14 59.41288 9.53276 4418 ft 233 kts 251°
2026-05-05 18:14 59.41031 9.50233 4076 ft 224 kts 279°
2026-05-05 18:14 59.41515 9.47467 3941 ft 208 kts 305°
2026-05-05 18:15 59.42479 9.45421 3901 ft 199 kts 320°
2026-05-05 18:15 59.43567 9.43713 3569 ft 200 kts 322°
2026-05-05 18:15 59.44643 9.42031 3439 ft 198 kts 321°
2026-05-05 18:15 59.45730 9.40319 3316 ft 204 kts 322°
2026-05-05 18:16 59.46819 9.38599 2972 ft 195 kts 322°
2026-05-05 18:16 59.47809 9.37037 2667 ft 185 kts 321°
2026-05-05 18:16 59.48762 9.35526 2340 ft 173 kts 321°
2026-05-05 18:16 59.49627 9.34161 2114 ft 147 kts 321°
2026-05-05 18:17 59.50383 9.32967 1877 ft 132 kts 321°
2026-05-05 18:17 59.51062 9.31891 1679 ft 118 kts 321°
2026-05-05 18:17 59.51720 9.30876 1511 ft 121 kts 325°
2026-05-05 18:17 59.52442 9.30008 1326 ft 121 kts 327°
2026-05-05 18:18 59.53143 9.29084 1106 ft 122 kts 325°
2026-05-05 18:18 59.53847 9.28159 887 ft 122 kts 321°
2026-05-05 18:18 59.54408 9.26861 620 ft 123 kts 307°
2026-05-05 18:18 59.54899 9.25501 439 ft 123 kts 307°
2026-05-05 18:19 59.55421 9.24116 260 ft 124 kts 308°
2026-05-05 18:19 59.55956 9.22768 144 ft 126 kts 308°
2026-05-05 18:19 59.56477 9.21428 37 ft 113 kts 307°
2026-05-05 18:19 59.56823 9.20528 31 ft 37 kts 307°
2026-05-05 18:20 59.56922 9.20289 33 ft 15 kts 327°
2026-05-05 18:20 59.56916 9.20256 33 ft 11 kts 122°
2026-05-05 18:20 59.56860 9.20426 31 ft 17 kts 126°
2026-05-05 18:20 59.56779 9.20637 31 ft 20 kts 128°
2026-05-05 18:21 59.56690 9.20874 33 ft 23 kts 127°
2026-05-05 18:21 59.56642 9.20994 34 ft 11 kts 127°
2026-05-05 18:21 59.56574 9.21183 34 ft 21 kts 124°
2026-05-05 18:21 59.56475 9.21430 34 ft 19 kts 133°
2026-05-05 18:22 59.56385 9.21665 37 ft 23 kts 127°
2026-05-05 18:22 59.56358 9.21784 39 ft 10 kts 42°
2026-05-05 18:22 59.56435 9.21881 39 ft 11 kts 38°
2026-05-05 18:22 59.56493 9.21890 39 ft 10 kts 294°
2026-05-05 18:23 59.56518 9.21817 40 ft 0 kts 305°